TimeAKDT,TemperatureF,Dew PointF,Humidity,Sea Level PressureIn,VisibilityMPH,Wind Direction,Wind SpeedMPH,Gust SpeedMPH,PrecipitationIn,Events,Conditions,WindDirDegrees,DateUTC
12:53 AM,30.9,10.0,42,29.64,8.0,NE,12.7,24.2,N/A,,Scattered Clouds,40,2012-10-13 08:53:00
1:53 AM,30.0,10.0,43,29.64,9.0,NE,16.1,25.3,N/A,,Clear,40,2012-10-13 09:53:00
2:53 AM,28.9,9.0,43,29.64,9.0,NE,16.1,27.6,N/A,,Clear,40,2012-10-13 10:53:00
3:53 AM,28.9,8.1,41,29.64,10.0,NE,15.0,25.3,N/A,,Clear,40,2012-10-13 11:53:00
4:53 AM,28.9,8.1,41,29.64,9.0,NE,13.8,26.5,N/A,,Clear,40,2012-10-13 12:53:00
5:53 AM,28.0,8.1,43,29.64,10.0,NE,13.8,24.2,N/A,,Clear,40,2012-10-13 13:53:00
6:53 AM,28.9,7.0,40,29.65,10.0,NE,16.1,23.0,N/A,,Clear,40,2012-10-13 14:53:00
7:53 AM,28.0,6.1,39,29.65,10.0,NNE,11.5,24.2,N/A,,Clear,30,2012-10-13 15:53:00
8:53 AM,28.0,9.0,45,29.65,10.0,NNE,15.0,21.9,N/A,,Clear,30,2012-10-13 16:53:00
9:53 AM,27.0,6.1,41,29.65,10.0,NNE,12.7,-,N/A,,Clear,20,2012-10-13 17:53:00
10:53 AM,28.9,6.1,38,29.65,10.0,NNE,12.7,21.9,N/A,,Clear,20,2012-10-13 18:53:00
11:53 AM,30.0,7.0,38,29.65,10.0,NNE,13.8,23.0,N/A,,Clear,30,2012-10-13 19:53:00
1:53 PM,33.1,9.0,37,29.63,10.0,NNE,12.7,24.2,N/A,,Clear,30,2012-10-13 21:53:00
2:53 PM,34.0,8.1,34,29.61,10.0,NNE,11.5,20.7,N/A,,Clear,20,2012-10-13 22:53:00
3:53 PM,34.0,8.1,34,29.60,10.0,NNE,13.8,23.0,N/A,,Clear,30,2012-10-13 23:53:00
4:53 PM,35.1,8.1,33,29.59,10.0,NNE,11.5,-,N/A,,Clear,30,2012-10-14 00:53:00
5:53 PM,33.1,9.0,37,29.59,10.0,NE,17.3,24.2,N/A,,Clear,40,2012-10-14 01:53:00
6:53 PM,30.9,9.0,40,29.58,10.0,NNE,13.8,-,N/A,,Clear,30,2012-10-14 02:53:00
7:53 PM,30.0,9.0,41,29.57,10.0,North,8.1,19.6,N/A,,Clear,10,2012-10-14 03:53:00
9:53 PM,28.0,9.0,45,29.57,10.0,North,9.2,-,N/A,,Clear,10,2012-10-14 05:53:00
10:53 PM,27.0,9.0,47,29.57,10.0,NNE,6.9,-,N/A,,Clear,20,2012-10-14 06:53:00
11:53 PM,27.0,10.0,49,29.57,10.0,North,6.9,-,N/A,,Clear,10,2012-10-14 07:53:00